Moline, IL

10:50 PM CDT on September 27, 2016 (GMT -0500)
Quad-City International

Weather History for KMLI - October, 2010

Change the Weather History Date:

Sunday, October 3, 2010

  Actual Average Record
Temperature  
Mean Temperature 50 °F 58 °F  
Max Temperature 60 °F 70 °F 95 °F (2006)
Min Temperature 39 °F 46 °F 27 °F (1974)
Degree Days  
Heating Degree Days 15 8  
Month to date heating degree days 32 24  
Since 1 July heating degree days 81 128  
Cooling Degree Days 0 1  
Month to date cooling degree days 0 3  
Year to date cooling degree days 1273 992  
Moisture  
Dew Point 36 °F    
Average Humidity 62    
Maximum Humidity 86    
Minimum Humidity 37    
Precipitation  
Precipitation 0.00 in 0.09 in 0.87 in (2000)
Month to date precipitation 0.03 0.27  
Year to date precipitation 39.86 30.52  
Snow  
Snow 0.00 in 0.00 in - ()
Month to date snowfall 0.0 0.0  
Since 1 July snowfall 0.0 0.0  
Since 1 September snowfall 0.0 0.0  
Snow Depth 0.00 in    
Sea Level Pressure  
Sea Level Pressure 30.41 in    
Wind  
Wind Speed 3 mph (NNE)    
Max Wind Speed 13 mph    
Max Gust Speed 16 mph    
Visibility 10 miles    
Events      
T = Trace of Precipitation, MM = Missing Value Source: NWS Daily Summary

Daily Weather History Graph

Daily Weather History Graph

Search for Another Location

Airport or City:

Trip Planner

Search our weather history database for the weather conditions in past years. The results will help you decide how hot, cold, wet, or windy it might be!

Date:

Astronomy

Oct. 03, 2010 Rise Set
Actual Time 7:00 AM CDT 6:40 PM CDT
Civil Twilight 6:33 AM CDT 7:08 PM CDT
Nautical Twilight 6:01 AM CDT 7:40 PM CDT
Astronomical Twilight 5:28 AM CDT 8:12 PM CDT
Moon 1:53 AM CDT (10/3) 4:08 PM CDT (10/3)
Length of Visible Light 12h 34m
Length of Day
11h 39m
Waning Crescent, 23% of the Moon is Illuminated
Oct 3
Waning Crescent
Oct 7
New
Oct 14
First Quarter
Oct 22
Full
Oct 30
Last Quarter

Hourly Weather History & Observations

Time (CDT) Temp. Windchill Dew Point Humidity Pressure Visibility Wind Dir Wind Speed Gust Speed Precip Events Conditions
12:52 AM 46.0 °F 43.9 °F 36.0 °F 68% 30.36 in 10.0 mi North 4.6 mph - N/A   Clear
1:52 AM 45.0 °F 41.8 °F 35.1 °F 68% 30.37 in 10.0 mi North 5.8 mph - N/A   Clear
2:52 AM 44.1 °F 41.5 °F 35.1 °F 71% 30.38 in 10.0 mi NNE 4.6 mph - N/A   Clear
3:52 AM 42.1 °F 40.2 °F 35.1 °F 76% 30.39 in 10.0 mi North 3.5 mph - N/A   Clear
4:52 AM 42.1 °F - 35.1 °F 76% 30.40 in 10.0 mi Calm Calm - N/A   Clear
5:52 AM 41.0 °F - 35.1 °F 79% 30.42 in 10.0 mi Calm Calm - N/A   Clear
6:52 AM 39.9 °F - 34.0 °F 79% 30.43 in 10.0 mi Calm Calm - N/A   Clear
7:52 AM 42.1 °F - 35.1 °F 76% 30.45 in 10.0 mi Calm Calm - N/A   Clear
8:52 AM 45.0 °F 40.6 °F 36.0 °F 71% 30.46 in 10.0 mi NNE 8.1 mph - N/A   Clear
9:52 AM 50.0 °F - 37.9 °F 63% 30.46 in 10.0 mi NE 6.9 mph - N/A   Clear
10:52 AM 53.1 °F - 39.0 °F 59% 30.46 in 10.0 mi Variable 4.6 mph - N/A   Clear
11:52 AM 55.0 °F - 37.9 °F 53% 30.44 in 10.0 mi NNE 8.1 mph - N/A   Partly Cloudy
12:52 PM 55.9 °F - 37.0 °F 49% 30.44 in 10.0 mi NNE 8.1 mph - N/A   Clear
1:52 PM 57.9 °F - 35.1 °F 42% 30.41 in 10.0 mi NNE 8.1 mph - N/A   Clear
2:52 PM 57.9 °F - 34.0 °F 41% 30.39 in 10.0 mi Calm Calm - N/A   Clear
3:52 PM 59.0 °F - 34.0 °F 39% 30.38 in 10.0 mi East 5.8 mph - N/A   Clear
4:52 PM 57.9 °F - 33.1 °F 39% 30.37 in 10.0 mi NE 6.9 mph - N/A   Clear
5:52 PM 57.0 °F - 33.1 °F 40% 30.37 in 10.0 mi NE 5.8 mph - N/A   Clear
6:52 PM 54.0 °F - 33.1 °F 45% 30.38 in 10.0 mi NE 4.6 mph - N/A   Clear
7:52 PM 48.0 °F - 37.9 °F 68% 30.39 in 10.0 mi Calm Calm - N/A   Clear
8:52 PM 45.0 °F - 39.0 °F 80% 30.39 in 10.0 mi Calm Calm - N/A   Clear
9:52 PM 43.0 °F - 37.9 °F 82% 30.39 in 10.0 mi Calm Calm - N/A   Clear
10:52 PM 43.0 °F - 37.9 °F 82% 30.39 in 10.0 mi Calm Calm - N/A   Clear
11:52 PM 41.0 °F - 37.0 °F 86% 30.40 in 10.0 mi Calm Calm - N/A   Clear